Location: ?????????
(41.1143°N, 22.7905°E)
Time: 04:41:57
(UTC+00:00)

COSMO-SKYMED 1 - Pass Details

Date: 14 March 2026
Orbit: 576 x 578 km, 97.9° (Epoch: 15 April)

Event Time Altitude Azimuth Distance (km) Brightness Sun altitude
Rises 03:35:20 0° 148° (SSE) 2,780 6.2 -13.5°
Reaches altitude 10° 03:37:33 10° 141° (SE) 1,886 5.5 -13.1°
Maximum altitude 03:41:23 40° 72° (ENE) 862 3.9 -12.3°
Drops below altitude 10° 03:45:14 10° 3° (N) 1,899 5.2 -11.6°
Sets 03:47:28 0° 356° (N) 2,802 6.0 -11.2°
